Regional Weather Roundup
Issued by NWS

Home | Current Version | Previous Version | Text Only | Print | Product List | Glossary Off
Versions: 1 2 3 4 5 6 7 8 9 10 11 12 13 14 15 16 17 18 19 20 21 22 23 24 25 26 27 28 29 30 31 32 33 34 35 36 37 38 39 40 41 42 43 44 45 46 47 48 49 50

000
ASUS43 KMKX 262221
RWRWI

WISCONSIN REGIONAL WEATHER ROUNDUP
NATIONAL WEATHER SERVICE MILWAUKEE/SULLIVAN WI
500 PM CDT MON SEP 26 2016

NOTE: "FAIR" INDICATES FEW OR NO CLOUDS BELOW 12,000 FEET WITH NO
SIGNIFICANT WEATHER AND/OR OBSTRUCTIONS TO VISIBILITY.

WIZ001-002-006>008-014>016-023>028-262300-
NORTHWEST WISCONSIN

CITY           SKY/WX    TMP DP  RH WIND       PRES   REMARKS
SUPERIOR ARPT  LGT RAIN  56  44  64 W14       29.75S
ASHLAND        CLOUDY    53  45  74 W16G24    29.73S
HAYWARD        LGT RAIN  55  41  59 W7G20     29.78S
SIREN          CLOUDY    60  37  42 W17G26    29.81F
CUMBERLAND     CLOUDY    55  37  50 W15G25    29.83R
RICE LAKE      CLOUDY    59  37  42 W15G29    29.84S
CHETEK         NOT AVBL
LADYSMITH      CLOUDY    58  40  51 W14G25    29.81F
EAU CLAIRE     PTSUNNY   62  38  40 W20G28    29.84F
MENOMONIE      MOSUNNY   63  39  41 W20G28    29.86S
NEW RICHMOND   PTSUNNY   62  35  37 W16G26    29.86F
OSCEOLA        PTSUNNY   62  37  39 W18G24    29.88F
$$

WIZ003>005-009-010-017-018-262300-
NORTH CENTRAL WISCONSIN

CITY           SKY/WX    TMP DP  RH WIND       PRES   REMARKS
MANITOWISH WTR NOT AVBL
ARBOR VITAE    DRIZZLE   52  49  89 W15G21    29.75R
WOODRUFF       DRIZZLE   52  49  89 W15G21    29.75R
RHINELANDER    LGT RAIN  50  47  89 W12G21    29.77R
EAGLE RIVER    RAIN      48  46  95 W16G23    29.73R
LAND O LAKES   LGT RAIN  48  46  93 W12G22    29.73R
PHILLIPS       DRIZZLE   52  42  68 W6        29.77S
TOMAHAWK       CLOUDY    50  44  78 W8        29.79S
MEDFORD        DRIZZLE   55  39  56 W10G18    29.81S
MERRILL        DRIZZLE   53  43  67 W17G29    29.80S
$$

WIZ029-030-035-036-043>047-262300-
CENTRAL WISCONSIN

CITY           SKY/WX    TMP DP  RH WIND       PRES   REMARKS
WAUSAU         CLOUDY    55  41  59 W15       29.79S
MOSINEE        CLOUDY    55  39  54 W17G24    29.82S
MARSHFIELD     CLOUDY    60  37  42 W24G33    29.82F
STEVENS POINT  CLOUDY    57  37  47 W17G29    29.83S
WAUPACA        CLOUDY    62  37  38 W17G31    29.82R
WAUTOMA        MOSUNNY   63  39  41 W22G29    29.84R
WISC RAPIDS    PTSUNNY   62  38  40 W20G30    29.85S
CAMP DOUGLAS   MOSUNNY   63  40  43 W21G32    29.86R
$$

WIZ011>013-019>022-031-037>040-048>050-262300-
NORTHEAST WISCONSIN

CITY           SKY/WX    TMP DP  RH WIND       PRES   REMARKS
ANTIGO         CLOUDY    51  42  71 W17G24    29.79R
SHAWANO        CLOUDY    60  39  46 W14G26    29.79R
OCONTO         NOT AVBL
STURGEON BAY   CLOUDY    60  41  49 W18G29    29.75F
GREEN BAY      CLOUDY    62  41  46 W20G26    29.78S
MANITOWOC      MOSUNNY   63  37  38 W20G33    29.80S
APPLETON       PTSUNNY   61  34  36 W20G29    29.80R
CLINTONVILLE   NOT AVBL
OSHKOSH        MOSUNNY   63  37  38 W13G29    29.81S
$$

WIZ032>034-041-042-053>061-262300-
SOUTHWEST WISCONSIN

CITY           SKY/WX    TMP DP  RH WIND       PRES   REMARKS
LA CROSSE      SUNNY     69  36  29 NW18      29.87S
SPARTA         MOSUNNY   64  38  38 NW18G25   29.88S
VIROQUA        SUNNY     65  29  26 NW16G33   29.89S
BOSCOBEL       SUNNY     70  31  23 W18G29    29.90F
PRAIRIE DU CHI SUNNY     69  28  21 W18G26    29.91F
PLATTEVILLE    SUNNY     67  35  30 W20G30    29.94S
$$

WIZ056-057-062-063-064-067-068-262300-
SOUTH CENTRAL WISCONSIN

CITY           SKY/WX    TMP DP  RH WIND       PRES   REMARKS
REEDSBURG      NOT AVBL
BARABOO/DELLS  MOSUNNY   65  32  28 W13G28    29.86F
LONE ROCK      MOSUNNY   68  32  26 W21G35    29.88F
MINERAL POINT  SUNNY     68  30  24 W20G33    29.91F
MADISON        PTSUNNY   66  33  29 W10G28    29.87S
MIDDLETON      NOT AVBL
WATERTOWN      PTSUNNY   65  35  33 W17G26    29.86S
MONROE         SUNNY     66  32  28 W24G31    29.92S
JANESVILLE     MOSUNNY   68  32  26 W16G31    29.90S
$$

WIZ051-052-058>065-066-070>072-262300-
SOUTHEAST WISCONSIN

CITY           SKY/WX    TMP DP  RH WIND       PRES   REMARKS
MILWAUKEE      MOSUNNY   66  35  31 W18G29    29.87F
WAUKESHA       PTSUNNY   63  36  36 W12G29    29.88F
MILWAUKEE/TIMM PTSUNNY   64  30  27 W16G25    29.87S
RACINE         MOSUNNY   66  35  31 W16G28    29.89F
BURLINGTON     MOSUNNY   65  33  30 W13G25    29.89S
KENOSHA        MOSUNNY   67  36  31 W20G31    29.89S
FOND DU LAC    CLOUDY    64  36  35 W16G28    29.83S
SHEBOYGAN      CLOUDY    62  38  40 W14G26    29.82F
WEST BEND      CLOUDY    63  34  34 W17       29.85S
JUNEAU         PTSUNNY   62  34  35 W15G28    29.87S
$$

LSZ147-162-262300-
LAKE SUPERIOR

STATION/POSITION TIME  TEMP    WIND        PRES    WAVE
                       AIR SEA DIR/SP/G            HT/PER
                 (UTC) (F)     (DEG/KT/KT) (MB)    (FT/S)
W MID LAKE BUOY  2150   51 48  250/ 27/ 35 1001.0R   8/ 7
DEVILS ISLAND    2200   53     250/ 31/ 36 1004.2R
SAXON HARBOR     2140   52     210/  9/ 15 1006.1S
$$

LMZ867-665-643>646-262300-
LAKE MICHIGAN

STATION/POSITION TIME  TEMP    WIND        PRES    WAVE
                       AIR SEA DIR/SP/G            HT/PER
                 (UTC) (F)     (DEG/KT/KT) (MB)    (FT/S)
CHAMBERS ISLAND  2100   59     220/ 12/ 21 1006.1F
N MID LAKE BUOY  2150   60 67  250/ 27/ 33 1004.9R   6/ 6
NORTHPORT PIER   2100   59     250/  6/ 18 1006.4S
KEWAUNEE LAKESHO 2100   63     260/ 18/ 24 1007.8R
SHEBOYGAN LAKESH 2200   63     250/ 13/ 16 1009.4F
PORT WASHINGTON  2100   66     260/ 14/ 23 1011.5R
ATWATER BUOY     2200   64     250/ 16/ 19 1011.1F
MILWAUKEE LAKESH 2210   65     270/ 14/ 17   N/A
S MID LAKE BUOY  2150   66 71  260/ 23/ 29 1010.9F   5/ 5
KENOSHA   LAKESH 2200   67     270/ 17/ 27 1011.9S
$$

TC  - TEMPERATURE IN CELSIUS
VSB - VISIBILITY IN STATUTE MILES
WCI - WIND CHILL INDEX
HX  - HEAT INDEX





USA.gov is the U.S. government's official web portal to all federal, state and local government web resources and services.